| time (UTC) | temp F | wind direction | speed MPH | gust MPH | rain 1hr in | rain 24hr in | rain mn in | humidity % | barometer mb |
| 20260902072531 | 55 | 307 | 4.0 | 8.0 | 0.00 | 0.00 | 0.00 | 72 | 1008.4 |
| 20260902072031 | 56 | 331 | 4.0 | 8.0 | 0.00 | 0.00 | 0.00 | 72 | 1008.4 |
| 20260902071811 | 56 | 299 | 4.0 | 10.0 | 0.00 | 0.00 | 0.00 | 72 | 1008.4 |
| 20260902071029 | 56 | 296 | 5.0 | 10.0 | 0.00 | 0.00 | 0.00 | 72 | 1008.5 |
| 20260902070529 | 56 | 306 | 4.0 | 10.0 | 0.00 | 0.00 | 0.00 | 72 | 1008.5 |
| 20260902070028 | 56 | 323 | 4.0 | 8.0 | 0.00 | 0.00 | 0.00 | 72 | 1008.5 |
| 20260902065537 | 56 | 265 | 4.0 | 9.0 | 0.00 | 0.00 | 0.00 | 71 | 1008.6 |
| 20260902065300 | 56 | 264 | 4.0 | 9.0 | 0.00 | 0.00 | 0.00 | 71 | 1008.6 |
| 20260902064527 | 56 | 258 | 4.0 | 9.0 | 0.00 | 0.00 | 0.00 | 71 | 1008.6 |
| 20260902064257 | 56 | 300 | 4.0 | 11.0 | 0.00 | 0.00 | 0.00 | 71 | 1008.6 |
| 20260902063527 | 56 | 279 | 4.0 | 11.0 | 0.00 | 0.00 | 0.00 | 70 | 1008.7 |
| 20260902063029 | 57 | 250 | 5.0 | 10.0 | 0.00 | 0.00 | 0.00 | 70 | 1008.7 |
| 20260902062758 | 57 | 261 | 5.0 | 10.0 | 0.00 | 0.00 | 0.00 | 69 | 1008.7 |
| 20260902062027 | 57 | 288 | 4.0 | 10.0 | 0.00 | 0.00 | 0.00 | 69 | 1008.7 |
| 20260902061526 | 57 | 290 | 4.0 | 9.0 | 0.00 | 0.00 | 0.00 | 68 | 1008.7 |
| 20260902061026 | 57 | 294 | 4.0 | 9.0 | 0.00 | 0.00 | 0.00 | 68 | 1008.7 |
| 20260902060810 | 57 | 290 | 5.0 | 10.0 | 0.00 | 0.00 | 0.00 | 67 | 1008.7 |
| 20260902060035 | 58 | 285 | 4.0 | 10.0 | 0.00 | 0.00 | 0.00 | 67 | 1008.7 |
| 20260902055526 | 58 | 279 | 3.0 | 7.0 | 0.00 | 0.00 | 0.00 | 66 | 1008.9 |
| 20260902055023 | 58 | 296 | 4.0 | 8.0 | 0.00 | 0.00 | 0.00 | 66 | 1008.9 |
| 20260902054519 | 58 | 298 | 4.0 | 8.0 | 0.00 | 0.00 | 0.00 | 66 | 1009.0 |
| 20260902054011 | 58 | 274 | 5.0 | 12.0 | 0.00 | 0.00 | 0.00 | 65 | 1009.0 |
| 20260902053503 | 58 | 306 | 5.0 | 12.0 | 0.00 | 0.00 | 0.00 | 65 | 1008.9 |
| 20260902053001 | 58 | 294 | 4.0 | 9.0 | 0.00 | 0.00 | 0.00 | 64 | 1009.0 |
| 20260902052453 | 58 | 294 | 4.0 | 9.0 | 0.00 | 0.00 | 0.00 | 64 | 1008.9 |
| 20260902051948 | 58 | 293 | 4.0 | 9.0 | 0.00 | 0.00 | 0.00 | 63 | 1008.7 |
| 20260902051440 | 59 | 317 | 4.0 | 9.0 | 0.00 | 0.00 | 0.00 | 63 | 1008.7 |
| 20260902050934 | 59 | 327 | 4.0 | 9.0 | 0.00 | 0.00 | 0.00 | 63 | 1008.6 |
| 20260902050431 | 59 | 288 | 4.0 | 9.0 | 0.00 | 0.00 | 0.00 | 63 | 1008.6 |
| 20260902045922 | 59 | 277 | 3.0 | 8.0 | 0.00 | 0.00 | 0.00 | 62 | 1008.6 |
| 20260902045423 | 59 | 287 | 3.0 | 8.0 | 0.00 | 0.00 | 0.00 | 62 | 1008.6 |
| 20260902045153 | 59 | 293 | 2.0 | 7.0 | 0.00 | 0.00 | 0.00 | 62 | 1008.5 |
| 20260902044418 | 59 | 290 | 3.0 | 7.0 | 0.00 | 0.00 | 0.00 | 62 | 1008.5 |
| 20260902043928 | 59 | 314 | 3.0 | 10.0 | 0.00 | 0.00 | 0.00 | 61 | 1008.4 |
| 20260902043418 | 59 | 305 | 4.0 | 10.0 | 0.00 | 0.00 | 0.00 | 61 | 1008.4 |
| 20260902042918 | 59 | 296 | 4.0 | 9.0 | 0.00 | 0.00 | 0.00 | 62 | 1008.3 |
| 20260902042417 | 59 | 316 | 4.0 | 10.0 | 0.00 | 0.00 | 0.00 | 62 | 1008.3 |
| 20260902042150 | 59 | 294 | 4.0 | 10.0 | 0.00 | 0.00 | 0.00 | 62 | 1008.2 |
| 20260902041417 | 59 | 329 | 4.0 | 10.0 | 0.00 | 0.00 | 0.00 | 62 | 1008.2 |
| 20260902040918 | 60 | 331 | 5.0 | 11.0 | 0.00 | 0.00 | 0.00 | 62 | 1008.1 |
| 20260902040418 | 60 | 300 | 4.0 | 11.0 | 0.00 | 0.00 | 0.00 | 61 | 1008.0 |
| 20260902035918 | 60 | 279 | 5.0 | 10.0 | 0.00 | 0.00 | 0.00 | 61 | 1007.9 |
| 20260902035418 | 60 | 300 | 6.0 | 14.0 | 0.00 | 0.00 | 0.00 | 61 | 1007.8 |
| 20260902034916 | 60 | 283 | 5.0 | 14.0 | 0.00 | 0.00 | 0.00 | 61 | 1007.7 |
| 20260902034416 | 60 | 233 | 5.0 | 10.0 | 0.00 | 0.00 | 0.00 | 61 | 1007.7 |
| 20260902033916 | 60 | 284 | 6.0 | 12.0 | 0.00 | 0.00 | 0.00 | 61 | 1007.3 |
| 20260902033416 | 60 | 319 | 5.0 | 13.0 | 0.00 | 0.00 | 0.00 | 61 | 1007.5 |
| 20260902032916 | 61 | 244 | 4.0 | 13.0 | 0.00 | 0.00 | 0.00 | 61 | 1007.3 |
| 20260902032415 | 61 | 297 | 4.0 | 17.0 | 0.00 | 0.00 | 0.00 | 61 | 1007.3 |
| 20260902032204 | 61 | 348 | 7.0 | 17.0 | 0.00 | 0.00 | 0.00 | 60 | 1007.0 |
| 20260902032200 | 61 | 319 | 6.0 | 17.0 | 0.00 | 0.00 | 0.00 | 61 | 1007.2 |
| 20260902031157 | 62 | 277 | 7.0 | 17.0 | 0.00 | 0.00 | 0.00 | 60 | 1007.0 |
| 20260902030652 | 62 | 269 | 5.0 | 17.0 | 0.00 | 0.00 | 0.00 | 59 | 1006.8 |
| 20260902030154 | 62 | 332 | 7.0 | 17.0 | 0.00 | 0.00 | 0.00 | 58 | 1006.7 |
| 20260902025414 | 62 | 298 | 8.0 | 17.0 | 0.00 | 0.00 | 0.00 | 57 | 1006.7 |
| 20260902024916 | 63 | 275 | 7.0 | 16.0 | 0.00 | 0.00 | 0.00 | 57 | 1006.7 |
| 20260902024655 | 63 | 260 | 7.0 | 16.0 | 0.00 | 0.00 | 0.00 | 56 | 1006.6 |
| 20260902023922 | 63 | 286 | 8.0 | 16.0 | 0.00 | 0.00 | 0.00 | 55 | 1006.5 |
| 20260902023424 | 63 | 259 | 8.0 | 19.0 | 0.00 | 0.00 | 0.00 | 55 | 1006.4 |
| 20260902022922 | 64 | 303 | 7.0 | 19.0 | 0.00 | 0.00 | 0.00 | 54 | 1006.5 |
| 20260902022421 | 64 | 275 | 7.0 | 16.0 | 0.00 | 0.00 | 0.00 | 53 | 1006.4 |
| 20260902021917 | 64 | 304 | 8.0 | 17.0 | 0.00 | 0.00 | 0.00 | 52 | 1006.4 |
| 20260902021417 | 65 | 240 | 8.0 | 17.0 | 0.00 | 0.00 | 0.00 | 52 | 1006.4 |
| 20260902020913 | 65 | 295 | 7.0 | 15.0 | 0.00 | 0.00 | 0.00 | 51 | 1006.4 |
| 20260902020409 | 66 | 260 | 7.0 | 15.0 | 0.00 | 0.00 | 0.00 | 51 | 1006.4 |
| 20260902015900 | 66 | 269 | 7.0 | 17.0 | 0.00 | 0.00 | 0.00 | 50 | 1006.4 |
| 20260902015355 | 66 | 261 | 6.0 | 17.0 | 0.00 | 0.00 | 0.00 | 50 | 1006.4 |
| 20260902014848 | 66 | 333 | 7.0 | 15.0 | 0.00 | 0.00 | 0.00 | 51 | 1006.2 |
| 20260902014343 | 66 | 269 | 8.0 | 16.0 | 0.00 | 0.00 | 0.00 | 51 | 1006.4 |
| 20260902013838 | 66 | 269 | 10.0 | 18.0 | 0.00 | 0.00 | 0.00 | 51 | 1006.4 |
| 20260902013331 | 67 | 275 | 9.0 | 21.0 | 0.00 | 0.00 | 0.00 | 50 | 1006.2 |
| 20260902012825 | 67 | 243 | 7.0 | 18.0 | 0.00 | 0.00 | 0.00 | 50 | 1006.1 |
| 20260902012319 | 67 | 298 | 6.0 | 17.0 | 0.00 | 0.00 | 0.00 | 50 | 1006.0 |
| 20260902012044 | 67 | 234 | 7.0 | 14.0 | 0.00 | 0.00 | 0.00 | 51 | 1005.9 |
| 20260902011308 | 67 | 306 | 7.0 | 14.0 | 0.00 | 0.00 | 0.00 | 51 | 1005.9 |
| 20260902010802 | 67 | 280 | 7.0 | 19.0 | 0.00 | 0.00 | 0.00 | 51 | 1005.8 |
| 20260902010531 | 67 | 302 | 7.0 | 19.0 | 0.00 | 0.00 | 0.00 | 50 | 1005.7 |
| 20260902005749 | 68 | 309 | 9.0 | 23.0 | 0.00 | 0.00 | 0.00 | 49 | 1005.7 |
| 20260902005244 | 68 | 278 | 11.0 | 23.0 | 0.00 | 0.00 | 0.00 | 47 | 1005.5 |
| 20260902004741 | 68 | 313 | 12.0 | 22.0 | 0.00 | 0.00 | 0.00 | 47 | 1005.7 |
| 20260902004243 | 68 | 300 | 12.0 | 22.0 | 0.00 | 0.00 | 0.00 | 46 | 1005.7 |
| 20260902003741 | 69 | 295 | 10.0 | 22.0 | 0.00 | 0.00 | 0.00 | 45 | 1005.7 |
| 20260902003242 | 69 | 277 | 10.0 | 20.0 | 0.00 | 0.00 | 0.00 | 44 | 1005.7 |
| 20260902002742 | 69 | 332 | 10.0 | 17.0 | 0.00 | 0.00 | 0.00 | 44 | 1005.7 |
| 20260902002242 | 70 | 322 | 9.0 | 19.0 | 0.00 | 0.00 | 0.00 | 43 | 1005.6 |
| 20260902001747 | 70 | 284 | 11.0 | 21.0 | 0.00 | 0.00 | 0.00 | 42 | 1005.5 |
| 20260902001241 | 71 | 248 | 12.0 | 21.0 | 0.00 | 0.00 | 0.00 | 41 | 1005.5 |
| 20260902000741 | 71 | 215 | 11.0 | 21.0 | 0.00 | 0.00 | 0.00 | 41 | 1005.4 |
| 20260902000242 | 71 | 232 | 11.0 | 19.0 | 0.00 | 0.00 | 0.00 | 40 | 1005.4 |
| 20260901235741 | 71 | 315 | 10.0 | 19.0 | 0.00 | 0.00 | 0.00 | 40 | 1005.4 |
| 20260901235242 | 71 | 275 | 11.0 | 22.0 | 0.00 | 0.00 | 0.00 | 39 | 1005.5 |
| 20260901234741 | 72 | 275 | 10.0 | 22.0 | 0.00 | 0.00 | 0.00 | 39 | 1005.5 |
| 20260901234241 | 73 | 253 | 9.0 | 19.0 | 0.00 | 0.00 | 0.00 | 37 | 1005.5 |
| 20260901233741 | 73 | 302 | 10.0 | 19.0 | 0.00 | 0.00 | 0.00 | 36 | 1005.5 |
| 20260901233240 | 75 | 250 | 9.0 | 17.0 | 0.00 | 0.00 | 0.00 | 35 | 1005.5 |
| 20260901232741 | 75 | 343 | 10.0 | 17.0 | 0.00 | 0.00 | 0.00 | 34 | 1005.5 |
| 20260901232235 | 75 | 301 | 11.0 | 22.0 | 0.00 | 0.00 | 0.00 | 34 | 1005.6 |
| 20260901231729 | 75 | 306 | 11.0 | 22.0 | 0.00 | 0.00 | 0.00 | 34 | 1005.6 |
| 20260901231223 | 76 | 286 | 11.0 | 19.0 | 0.00 | 0.00 | 0.00 | 34 | 1005.6 |
| 20260901230716 | 75 | 275 | 10.0 | 21.0 | 0.00 | 0.00 | 0.00 | 35 | 1005.6 |
| 20260901230214 | 76 | 307 | 10.0 | 21.0 | 0.00 | 0.00 | 0.00 | 34 | 1005.5 |
| 20260901225712 | 76 | 294 | 11.0 | 19.0 | 0.00 | 0.00 | 0.00 | 35 | 1005.5 |
| 20260901225214 | 75 | 254 | 10.0 | 19.0 | 0.00 | 0.00 | 0.00 | 35 | 1005.6 |
| 20260901224713 | 74 | 295 | 9.0 | 16.0 | 0.00 | 0.00 | 0.00 | 35 | 1005.7 |
| 20260901224213 | 74 | 251 | 9.0 | 16.0 | 0.00 | 0.00 | 0.00 | 35 | 1005.6 |
| 20260901223714 | 75 | 319 | 9.0 | 16.0 | 0.00 | 0.00 | 0.00 | 34 | 1005.6 |
| 20260901223458 | 75 | 295 | 9.0 | 16.0 | 0.00 | 0.00 | 0.00 | 33 | 1005.6 |
| 20260901222712 | 76 | 298 | 8.0 | 15.0 | 0.00 | 0.00 | 0.00 | 33 | 1005.5 |
| 20260901222451 | 76 | 261 | 9.0 | 17.0 | 0.00 | 0.00 | 0.00 | 32 | 1005.5 |
| 20260901221951 | 76 | 306 | 10.0 | 17.0 | 0.00 | 0.00 | 0.00 | 31 | 1005.5 |
| 20260901221458 | 77 | 304 | 8.0 | 16.0 | 0.00 | 0.00 | 0.00 | 30 | 1005.4 |
| 20260901220710 | 78 | 270 | 7.0 | 18.0 | 0.00 | 0.00 | 0.00 | 28 | 1005.4 |
| 20260901220447 | 79 | 311 | 7.0 | 18.0 | 0.00 | 0.00 | 0.00 | 27 | 1005.3 |
| 20260901215708 | 80 | 348 | 8.0 | 15.0 | 0.00 | 0.00 | 0.00 | 26 | 1005.3 |
| 20260901215210 | 80 | 306 | 9.0 | 15.0 | 0.00 | 0.00 | 0.00 | 26 | 1005.3 |
| 20260901214709 | 80 | 294 | 8.0 | 15.0 | 0.00 | 0.00 | 0.00 | 26 | 1005.2 |
| 20260901214218 | 80 | 288 | 6.0 | 14.0 | 0.00 | 0.00 | 0.00 | 26 | 1005.2 |
| 20260901213717 | 81 | 296 | 6.0 | 13.0 | 0.00 | 0.00 | 0.00 | 25 | 1005.3 |
| 20260901213220 | 82 | 344 | 6.0 | 13.0 | 0.00 | 0.00 | 0.00 | 24 | 1005.4 |
| 20260901212719 | 82 | 342 | 5.0 | 12.0 | 0.00 | 0.00 | 0.00 | 25 | 1005.4 |
| 20260901212211 | 82 | 321 | 5.0 | 12.0 | 0.00 | 0.00 | 0.00 | 25 | 1005.4 |
| 20260901211705 | 81 | 325 | 4.0 | 11.0 | 0.00 | 0.00 | 0.00 | 25 | 1005.5 |
| 20260901211158 | 80 | 355 | 5.0 | 11.0 | 0.00 | 0.00 | 0.00 | 26 | 1005.5 |
| 20260901210927 | 81 | 355 | 6.0 | 13.0 | 0.00 | 0.00 | 0.00 | 26 | 1005.6 |
| 20260901210148 | 80 | 329 | 4.0 | 13.0 | 0.00 | 0.00 | 0.00 | 26 | 1005.5 |
| 20260901205642 | 80 | 5 | 3.0 | 9.0 | 0.00 | 0.00 | 0.00 | 27 | 1005.7 |
| 20260901205136 | 80 | 0 | 4.0 | 13.0 | 0.00 | 0.00 | 0.00 | 27 | 1005.8 |
| 20260901204629 | 80 | 265 | 4.0 | 13.0 | 0.00 | 0.00 | 0.00 | 27 | 1005.8 |
| 20260901204135 | 80 | 340 | 4.0 | 12.0 | 0.00 | 0.00 | 0.00 | 27 | 1005.9 |
| 20260901204130 | 80 | 355 | 4.0 | 12.0 | 0.00 | 0.00 | 0.00 | 26 | 1005.8 |
| 20260901203343 | 80 | 355 | 4.0 | 11.0 | 0.00 | 0.00 | 0.00 | 27 | 1005.9 |
| 20260901202604 | 80 | 340 | 5.0 | 15.0 | 0.00 | 0.00 | 0.00 | 27 | 1006.0 |
| 20260901202059 | 80 | 313 | 4.0 | 15.0 | 0.00 | 0.00 | 0.00 | 27 | 1006.0 |
| 20260901201553 | 80 | 275 | 3.0 | 10.0 | 0.00 | 0.00 | 0.00 | 27 | 1006.0 |
| 20260901201046 | 79 | 338 | 3.0 | 9.0 | 0.00 | 0.00 | 0.00 | 29 | 1006.0 |
| 20260901200542 | 78 | 350 | 3.0 | 7.0 | 0.00 | 0.00 | 0.00 | 32 | 1006.1 |
| 20260901200035 | 78 | 242 | 2.0 | 7.0 | 0.00 | 0.00 | 0.00 | 32 | 1006.1 |
| 20260901195531 | 78 | 349 | 2.0 | 5.0 | 0.00 | 0.00 | 0.00 | 33 | 1006.2 |
| 20260901195020 | 78 | 59 | 2.0 | 5.0 | 0.00 | 0.00 | 0.00 | 32 | 1006.2 |
| 20260901194517 | 78 | 73 | 3.0 | 8.0 | 0.00 | 0.00 | 0.00 | 33 | 1006.4 |
| 20260901194016 | 78 | 343 | 3.0 | 8.0 | 0.00 | 0.00 | 0.00 | 33 | 1006.5 |
| 20260901193506 | 78 | 348 | 2.0 | 6.0 | 0.00 | 0.00 | 0.00 | 33 | 1006.6 |
| 20260901192959 | 77 | 32 | 2.0 | 6.0 | 0.00 | 0.00 | 0.00 | 34 | 1006.7 |
| 20260901192453 | 77 | 202 | 2.0 | 6.0 | 0.00 | 0.00 | 0.00 | 33 | 1006.8 |
| 20260901191947 | 77 | 302 | 3.0 | 9.0 | 0.00 | 0.00 | 0.00 | 34 | 1006.8 |
| 20260901191440 | 77 | 338 | 3.0 | 9.0 | 0.00 | 0.00 | 0.00 | 33 | 1006.9 |
| 20260901190937 | 77 | 355 | 2.0 | 9.0 | 0.00 | 0.00 | 0.00 | 34 | 1007.0 |
| 20260901190429 | 77 | 19 | 1.0 | 7.0 | 0.00 | 0.00 | 0.00 | 33 | 1007.0 |
| 20260901185926 | 76 | 43 | 1.0 | 4.0 | 0.00 | 0.00 | 0.00 | 33 | 1007.1 |
| 20260901185419 | 76 | 260 | 1.0 | 3.0 | 0.00 | 0.00 | 0.00 | 33 | 1007.2 |
| 20260901184912 | 76 | 270 | 1.0 | 4.0 | 0.00 | 0.00 | 0.00 | 34 | 1007.2 |
| 20260901184404 | 75 | 294 | 2.0 | 4.0 | 0.00 | 0.00 | 0.00 | 35 | 1007.3 |
| 20260901183901 | 75 | 13 | 2.0 | 4.0 | 0.00 | 0.00 | 0.00 | 36 | 1007.3 |
| 20260901183356 | 74 | 30 | 2.0 | 7.0 | 0.00 | 0.00 | 0.00 | 37 | 1007.2 |
| 20260901182847 | 74 | 323 | 2.0 | 7.0 | 0.00 | 0.00 | 0.00 | 36 | 1007.4 |
| 20260901182341 | 74 | 317 | 2.0 | 6.0 | 0.00 | 0.00 | 0.00 | 37 | 1007.4 |
| 20260901182110 | 74 | 62 | 3.0 | 6.0 | 0.00 | 0.00 | 0.00 | 37 | 1007.3 |
| 20260901181330 | 74 | 34 | 1.0 | 6.0 | 0.00 | 0.00 | 0.00 | 38 | 1007.3 |
| 20260901181101 | 74 | 18 | 1.0 | 5.0 | 0.00 | 0.00 | 0.00 | 38 | 1007.4 |
| 20260901180326 | 73 | 355 | 1.0 | 5.0 | 0.00 | 0.00 | 0.00 | 39 | 1007.4 |
| 20260901175827 | 73 | 349 | 1.0 | 5.0 | 0.00 | 0.00 | 0.00 | 39 | 1007.3 |
| 20260901175326 | 72 | 269 | 1.0 | 3.0 | 0.00 | 0.00 | 0.00 | 40 | 1007.4 |
| 20260901174825 | 72 | 300 | 2.0 | 5.0 | 0.00 | 0.00 | 0.00 | 40 | 1007.5 |
| 20260901174554 | 72 | 301 | 2.0 | 5.0 | 0.00 | 0.00 | 0.00 | 40 | 1007.5 |
| 20260901173822 | 72 | 27 | 2.0 | 4.0 | 0.00 | 0.00 | 0.00 | 41 | 1007.5 |
| 20260901173324 | 71 | 355 | 2.0 | 9.0 | 0.00 | 0.00 | 0.00 | 41 | 1007.5 |
| 20260901172826 | 71 | 350 | 1.0 | 9.0 | 0.00 | 0.00 | 0.00 | 41 | 1007.4 |
| 20260901172329 | 70 | 293 | 1.0 | 6.0 | 0.00 | 0.00 | 0.00 | 42 | 1007.4 |
| 20260901171832 | 70 | 275 | 1.0 | 6.0 | 0.00 | 0.00 | 0.00 | 42 | 1007.4 |
| 20260901171322 | 70 | 277 | 1.0 | 4.0 | 0.00 | 0.00 | 0.00 | 42 | 1007.4 |
| 20260901170822 | 70 | 135 | 1.0 | 4.0 | 0.00 | 0.00 | 0.00 | 42 | 1007.3 |
| 20260901170322 | 70 | 111 | 1.0 | 3.0 | 0.00 | 0.00 | 0.00 | 42 | 1007.3 |
| 20260901165822 | 69 | 112 | 1.0 | 5.0 | 0.00 | 0.00 | 0.00 | 43 | 1007.3 |
| 20260901165602 | 68 | 124 | 1.0 | 5.0 | 0.00 | 0.00 | 0.00 | 43 | 1007.3 |
| 20260901164819 | 68 | 156 | 1.0 | 5.0 | 0.00 | 0.00 | 0.00 | 44 | 1007.3 |
| 20260901164318 | 67 | 140 | 1.0 | 6.0 | 0.00 | 0.00 | 0.00 | 44 | 1007.4 |
| 20260901163818 | 67 | 126 | 1.0 | 6.0 | 0.00 | 0.00 | 0.00 | 44 | 1007.5 |
| 20260901163318 | 66 | 130 | 1.0 | 6.0 | 0.00 | 0.00 | 0.00 | 45 | 1007.4 |
| 20260901162817 | 66 | 148 | 1.0 | 6.0 | 0.00 | 0.00 | 0.00 | 46 | 1007.4 |
| 20260901162320 | 65 | 140 | 1.0 | 6.0 | 0.00 | 0.00 | 0.00 | 46 | 1007.4 |
| 20260901161818 | 65 | 119 | 1.0 | 6.0 | 0.00 | 0.00 | 0.00 | 47 | 1007.4 |
| 20260901161318 | 64 | 123 | 1.0 | 6.0 | 0.00 | 0.00 | 0.00 | 47 | 1007.5 |
| 20260901161058 | 63 | 112 | 1.0 | 6.0 | 0.00 | 0.00 | 0.00 | 49 | 1007.5 |
| 20260901160317 | 62 | 142 | 1.0 | 3.0 | 0.00 | 0.00 | 0.00 | 50 | 1007.7 |
| 20260901155815 | 62 | 143 | 1.0 | 4.0 | 0.00 | 0.00 | 0.00 | 50 | 1007.7 |
| 20260901155317 | 61 | 142 | 1.0 | 6.0 | 0.00 | 0.00 | 0.00 | 51 | 1007.8 |
| 20260901154813 | 60 | 140 | 1.0 | 6.0 | 0.00 | 0.00 | 0.00 | 51 | 1007.8 |
| 20260901154315 | 60 | 144 | 1.0 | 5.0 | 0.00 | 0.00 | 0.00 | 52 | 1007.8 |
| 20260901153817 | 59 | 142 | 2.0 | 4.0 | 0.00 | 0.00 | 0.00 | 52 | 1007.8 |
| 20260901153314 | 58 | 138 | 2.0 | 6.0 | 0.00 | 0.00 | 0.00 | 53 | 1007.9 |
| 20260901152814 | 58 | 148 | 1.0 | 6.0 | 0.00 | 0.00 | 0.00 | 54 | 1007.9 |
| 20260901152313 | 57 | 150 | 1.0 | 6.0 | 0.00 | 0.00 | 0.00 | 55 | 1008.0 |
| 20260901151816 | 57 | 162 | 2.0 | 6.0 | 0.00 | 0.00 | 0.00 | 56 | 1008.0 |
| 20260901151315 | 56 | 150 | 2.0 | 7.0 | 0.00 | 0.00 | 0.00 | 56 | 1008.0 |
| 20260901150810 | 56 | 150 | 3.0 | 8.0 | 0.00 | 0.00 | 0.00 | 56 | 1008.0 |
| 20260901150302 | 56 | 153 | 3.0 | 8.0 | 0.00 | 0.00 | 0.00 | 57 | 1007.9 |
| 20260901145758 | 55 | 144 | 4.0 | 8.0 | 0.00 | 0.00 | 0.00 | 57 | 1007.9 |
| 20260901145251 | 55 | 145 | 4.0 | 8.0 | 0.00 | 0.00 | 0.00 | 58 | 1007.8 |
| 20260901145010 | 54 | 144 | 4.0 | 7.0 | 0.00 | 0.00 | 0.00 | 59 | 1007.7 |
| 20260901144239 | 53 | 144 | 3.0 | 8.0 | 0.00 | 0.00 | 0.00 | 60 | 1007.4 |
| 20260901143732 | 53 | 155 | 3.0 | 8.0 | 0.00 | 0.00 | 0.00 | 61 | 1007.4 |
| 20260901143226 | 53 | 141 | 4.0 | 7.0 | 0.00 | 0.00 | 0.00 | 61 | 1007.3 |
| 20260901142721 | 52 | 137 | 4.0 | 7.0 | 0.00 | 0.00 | 0.00 | 62 | 1007.3 |
| 20260901142215 | 52 | 138 | 3.0 | 6.0 | 0.00 | 0.00 | 0.00 | 62 | 1007.3 |
| 20260901141709 | 52 | 143 | 3.0 | 6.0 | 0.00 | 0.00 | 0.00 | 62 | 1007.3 |
| 20260901141202 | 52 | 140 | 1.0 | 4.0 | 0.00 | 0.00 | 0.00 | 62 | 1007.2 |
| 20260901140659 | 52 | 144 | 0.0 | 2.0 | 0.00 | 0.00 | 0.00 | 62 | 1007.1 |
| 20260901140151 | 53 | 144 | 1.0 | 4.0 | 0.00 | 0.00 | 0.00 | 62 | 1007.0 |
| 20260901135644 | 53 | 144 | 2.0 | 4.0 | 0.00 | 0.00 | 0.00 | 62 | 1007.1 |
| 20260901135145 | 53 | 148 | 2.0 | 4.0 | 0.00 | 0.00 | 0.00 | 62 | 1007.0 |
| 20260901134632 | 53 | 144 | 2.0 | 5.0 | 0.00 | 0.00 | 0.00 | 61 | 1006.9 |
| 20260901134129 | 53 | 145 | 2.0 | 5.0 | 0.00 | 0.00 | 0.00 | 61 | 1007.0 |
| 20260901133627 | 53 | 145 | 1.0 | 4.0 | 0.00 | 0.00 | 0.00 | 61 | 1006.9 |
| 20260901133349 | 53 | 146 | 1.0 | 3.0 | 0.00 | 0.00 | 0.00 | 61 | 1006.9 |
| 20260901132627 | 53 | 150 | 1.0 | 2.0 | 0.00 | 0.00 | 0.00 | 61 | 1007.0 |
| 20260901132128 | 53 | 150 | 0.0 | 2.0 | 0.00 | 0.00 | 0.00 | 61 | 1007.0 |
| 20260901131627 | 53 | 150 | 0.0 | 2.0 | 0.00 | 0.00 | 0.00 | 61 | 1006.9 |
| 20260901131125 | 54 | 150 | 0.0 | 2.0 | 0.00 | 0.00 | 0.00 | 61 | 1007.0 |
| 20260901130623 | 54 | 151 | 0.0 | 2.0 | 0.00 | 0.00 | 0.00 | 60 | 1006.9 |
| 20260901130122 | 54 | 150 | 0.0 | 2.0 | 0.00 | 0.00 | 0.00 | 60 | 1007.0 |
| 20260901125620 | 54 | 150 | 1.0 | 5.0 | 0.00 | 0.00 | 0.00 | 60 | 1006.9 |
| 20260901125119 | 55 | 150 | 1.0 | 5.0 | 0.00 | 0.00 | 0.00 | 59 | 1006.8 |
| 20260901124633 | 55 | 150 | 2.0 | 5.0 | 0.00 | 0.00 | 0.00 | 60 | 1006.8 |
| 20260901124120 | 55 | 153 | 2.0 | 5.0 | 0.00 | 0.00 | 0.00 | 60 | 1006.8 |
| 20260901123619 | 55 | 163 | 2.0 | 4.0 | 0.00 | 0.00 | 0.00 | 59 | 1006.8 |
| 20260901123348 | 55 | 171 | 1.0 | 4.0 | 0.00 | 0.00 | 0.00 | 59 | 1006.9 |
| 20260901122619 | 55 | 226 | 1.0 | 3.0 | 0.00 | 0.00 | 0.00 | 58 | 1006.9 |
| 20260901122120 | 55 | 234 | 0.0 | 3.0 | 0.00 | 0.00 | 0.00 | 57 | 1006.8 |
| 20260901121847 | 56 | 259 | 0.0 | 1.0 | 0.00 | 0.00 | 0.00 | 58 | 1006.9 |
| 20260901121113 | 56 | 259 | 0.0 | 1.0 | 0.00 | 0.00 | 0.00 | 57 | 1006.9 |
| 20260901120610 | 56 | 259 | 0.0 | 1.0 | 0.00 | 0.00 | 0.00 | 58 | 1006.9 |
| 20260901115555 | 56 | 259 | 0.0 | 0.0 | 0.00 | 0.00 | 0.00 | 57 | 1006.9 |
| 20260901115048 | 56 | 259 | 0.0 | 0.0 | 0.00 | 0.00 | 0.00 | 57 | 1007.0 |
| 20260901114542 | 56 | 259 | 0.0 | 0.0 | 0.00 | 0.00 | 0.00 | 56 | 1007.0 |
| 20260901114037 | 57 | 259 | 0.0 | 0.0 | 0.00 | 0.00 | 0.00 | 56 | 1007.0 |
| 20260901113537 | 57 | 259 | 0.0 | 0.0 | 0.00 | 0.00 | 0.00 | 56 | 1007.0 |
| 20260901113037 | 57 | 259 | 0.0 | 0.0 | 0.00 | 0.00 | 0.00 | 56 | 1006.9 |
| 20260901112537 | 57 | 259 | 0.0 | 0.0 | 0.00 | 0.00 | 0.00 | 56 | 1007.0 |
| 20260901112306 | 57 | 259 | 0.0 | 0.0 | 0.00 | 0.00 | 0.00 | 56 | 1006.8 |
| 20260901111535 | 57 | 259 | 0.0 | 0.0 | 0.00 | 0.00 | 0.00 | 54 | 1006.8 |
| 20260901111041 | 57 | 259 | 0.0 | 0.0 | 0.00 | 0.00 | 0.00 | 55 | 1006.9 |
| 20260901110533 | 57 | 259 | 0.0 | 0.0 | 0.00 | 0.00 | 0.00 | 54 | 1006.9 |
| 20260901110033 | 57 | 259 | 0.0 | 0.0 | 0.00 | 0.00 | 0.00 | 53 | 1006.9 |
| 20260901105533 | 58 | 259 | 0.0 | 0.0 | 0.00 | 0.00 | 0.00 | 52 | 1006.9 |
| 20260901105034 | 58 | 259 | 0.0 | 0.0 | 0.00 | 0.00 | 0.00 | 51 | 1006.9 |
| 20260901104533 | 59 | 259 | 0.0 | 0.0 | 0.00 | 0.00 | 0.00 | 51 | 1007.0 |
| 20260901104033 | 59 | 259 | 0.0 | 0.0 | 0.00 | 0.00 | 0.00 | 51 | 1007.0 |
| 20260901103532 | 60 | 259 | 0.0 | 1.0 | 0.00 | 0.00 | 0.00 | 51 | 1007.0 |
| 20260901103033 | 60 | 259 | 0.0 | 1.0 | 0.00 | 0.00 | 0.00 | 51 | 1007.0 |
| 20260901102532 | 60 | 259 | 0.0 | 0.0 | 0.00 | 0.00 | 0.00 | 50 | 1007.1 |
| 20260901102033 | 60 | 259 | 0.0 | 1.0 | 0.00 | 0.00 | 0.00 | 50 | 1007.0 |
| 20260901101534 | 60 | 259 | 0.0 | 1.0 | 0.00 | 0.00 | 0.00 | 49 | 1007.0 |
| 20260901101032 | 60 | 259 | 0.0 | 0.0 | 0.00 | 0.00 | 0.00 | 49 | 1007.0 |
| 20260901100532 | 60 | 259 | 0.0 | 1.0 | 0.00 | 0.00 | 0.00 | 49 | 1007.0 |
| 20260901100032 | 61 | 259 | 0.0 | 3.0 | 0.00 | 0.00 | 0.00 | 49 | 1007.1 |
| 20260901095533 | 61 | 259 | 1.0 | 3.0 | 0.00 | 0.00 | 0.00 | 48 | 1007.1 |
| 20260901095031 | 61 | 259 | 1.0 | 3.0 | 0.00 | 0.00 | 0.00 | 48 | 1007.1 |
| 20260901094755 | 60 | 263 | 1.0 | 3.0 | 0.00 | 0.00 | 0.00 | 48 | 1007.2 |
| 20260901094029 | 60 | 263 | 1.0 | 3.0 | 0.00 | 0.00 | 0.00 | 48 | 1007.2 |
| 20260901093526 | 60 | 266 | 1.0 | 3.0 | 0.00 | 0.00 | 0.00 | 47 | 1007.1 |
| 20260901093026 | 60 | 275 | 0.0 | 2.0 | 0.00 | 0.00 | 0.00 | 47 | 1007.1 |
| 20260901092525 | 61 | 277 | 0.0 | 2.0 | 0.00 | 0.00 | 0.00 | 47 | 1007.2 |
| 20260901092023 | 60 | 278 | 0.0 | 2.0 | 0.00 | 0.00 | 0.00 | 47 | 1007.2 |
| 20260901091523 | 61 | 281 | 0.0 | 2.0 | 0.00 | 0.00 | 0.00 | 47 | 1007.3 |
| 20260901091023 | 61 | 281 | 0.0 | 2.0 | 0.00 | 0.00 | 0.00 | 47 | 1007.2 |
| 20260901090523 | 61 | 281 | 0.0 | 2.0 | 0.00 | 0.00 | 0.00 | 47 | 1007.2 |
| 20260901090016 | 61 | 281 | 0.0 | 3.0 | 0.00 | 0.00 | 0.00 | 47 | 1007.4 |
| 20260901085517 | 61 | 281 | 0.0 | 3.0 | 0.00 | 0.00 | 0.00 | 46 | 1007.3 |
| 20260901085240 | 61 | 284 | 0.0 | 2.0 | 0.00 | 0.00 | 0.00 | 46 | 1007.3 |
| 20260901084738 | 61 | 284 | 0.0 | 3.0 | 0.00 | 0.00 | 0.00 | 45 | 1007.2 |
| 20260901084018 | 61 | 284 | 0.0 | 3.0 | 0.00 | 0.00 | 0.00 | 45 | 1007.3 |
| 20260901083514 | 61 | 285 | 0.0 | 3.0 | 0.00 | 0.00 | 0.00 | 44 | 1007.4 |
| 20260901083243 | 61 | 298 | 0.0 | 2.0 | 0.00 | 0.00 | 0.00 | 45 | 1007.4 |
| 20260901082509 | 61 | 298 | 0.0 | 2.0 | 0.00 | 0.00 | 0.00 | 45 | 1007.3 |
| 20260901082002 | 61 | 298 | 0.0 | 2.0 | 0.00 | 0.00 | 0.00 | 44 | 1007.3 |
| 20260901081456 | 61 | 298 | 0.0 | 2.0 | 0.00 | 0.00 | 0.00 | 44 | 1007.4 |
| 20260901080949 | 61 | 298 | 0.0 | 2.0 | 0.00 | 0.00 | 0.00 | 43 | 1007.3 |
| 20260901080444 | 61 | 298 | 1.0 | 2.0 | 0.00 | 0.00 | 0.00 | 42 | 1007.3 |
| 20260901075938 | 61 | 299 | 1.0 | 2.0 | 0.00 | 0.00 | 0.00 | 41 | 1007.3 |
| 20260901075433 | 61 | 301 | 1.0 | 2.0 | 0.00 | 0.00 | 0.00 | 41 | 1007.3 |
| 20260901074926 | 61 | 301 | 1.0 | 2.0 | 0.00 | 0.00 | 0.00 | 40 | 1007.3 |
| 20260901074912 | 61 | 301 | 1.0 | 2.0 | 0.00 | 0.00 | 0.00 | 39 | 1007.3 |
| 20260901073915 | 61 | 301 | 0.0 | 1.0 | 0.00 | 0.00 | 0.00 | 39 | 1007.4 |
| 20260901073636 | 61 | 301 | 0.0 | 1.0 | 0.00 | 0.00 | 0.00 | 39 | 1007.4 |